Weather History for Moffett NAS, CA

Change the Weather History Date:

Sunday, September 25, 2011

  Actual Average Record
Temperature  
Mean Temperature 66 °F 67 °F  
Max Temperature 72 °F 77 °F 91 °F (1978)
Min Temperature 60 °F 57 °F 43 °F (1948)
Degree Days  
Heating Degree Days 0    
Month to date heating degree days 0  
Since 1 July heating degree days 10  
Cooling Degree Days 1    
Month to date cooling degree days 116  
Year to date cooling degree days 351  
Growing Degree Days 17 (Base 50)    
Moisture  
Dew Point 55 °F    
Average Humidity 69    
Maximum Humidity 84    
Minimum Humidity 53    
Precipitation  
Precipitation 0.00 in 0.00 in 0.39 in (1982)
Month to date precipitation T 0.13  
Year to date precipitation 9.50 9.79  
Since 1 July precipitation T 0.16  
Sea Level Pressure  
Sea Level Pressure 30.03 in    
Wind  
Wind Speed 4 mph (NW)    
Max Wind Speed 13 mph    
Max Gust Speed 15 mph    
Visibility 10 miles    
Events      
T = Trace of Precipitation, MM = Missing Value Source: NWS Daily Summary

Daily Weather History Graph

Daily Weather History Graph

Search for Another Location

Airport:

Trip Planner

Search our weather history database for the weather conditions in past years. The results will help you decide how hot, cold, wet, or windy it might be!

Date:

Astronomy

Sep. 25, 2011 Rise Set
Actual Time 6:58 AM PDT 7:00 PM PDT
Civil Twilight 6:32 AM PDT 7:26 PM PDT
Nautical Twilight 6:01 AM PDT 7:57 PM PDT
Astronomical Twilight 5:31 AM PDT 8:27 PM PDT
Moon 4:53 AM PDT (9/25) 5:43 PM PDT (9/25)
Length of Visible Light 12h 54m
Length of Day
12h 02m
Waning Crescent, 4% of the Moon is Illuminated
Sep 25
Waning Crescent
Sep 27
New
Oct 3
First Quarter
Oct 11
Full
Oct 19
Last Quarter

Hourly Weather History & Observations

Time (PDT) Temp. Dew Point Humidity Pressure Visibility Wind Dir Wind Speed Gust Speed Precip Events Conditions
12:56 AM 64.9 °F 53.1 °F 65% 30.01 in 10.0 mi SW 4.6 mph - N/A   Overcast
1:56 AM 64.0 °F 53.1 °F 67% 30.01 in 10.0 mi Calm Calm - N/A   Overcast
2:56 AM 64.9 °F 53.1 °F 65% 30.01 in 10.0 mi West 3.5 mph - N/A   Overcast
3:56 AM 64.9 °F 53.1 °F 65% 30.00 in 10.0 mi Calm Calm - N/A   Overcast
4:56 AM 64.0 °F 53.1 °F 67% 30.00 in 10.0 mi Calm Calm - N/A   Overcast
5:56 AM 64.0 °F 53.1 °F 67% 30.00 in 10.0 mi Calm Calm - N/A   Mostly Cloudy
6:56 AM 63.0 °F 53.1 °F 70% 30.01 in 10.0 mi ESE 4.6 mph - N/A   Mostly Cloudy
7:56 AM 64.9 °F 53.1 °F 65% 30.04 in 10.0 mi Calm Calm - N/A   Overcast
8:56 AM 66.9 °F 54.0 °F 63% 30.04 in 10.0 mi SE 5.8 mph - N/A   Mostly Cloudy
9:56 AM 68.0 °F 53.1 °F 59% 30.06 in 10.0 mi Variable 3.5 mph - N/A   Overcast
10:56 AM 69.1 °F 54.0 °F 58% 30.06 in 10.0 mi Calm Calm - N/A   Overcast
11:56 AM 71.1 °F 54.0 °F 55% 30.05 in 10.0 mi Calm Calm - N/A   Overcast
12:56 PM 71.1 °F 55.0 °F 57% 30.05 in 10.0 mi Calm Calm - N/A   Overcast
1:56 PM 72.0 °F 57.0 °F 59% 30.04 in 10.0 mi WNW 5.8 mph - N/A   Overcast
2:32 PM 69.8 °F 57.2 °F 64% 30.03 in 10.0 mi North 11.5 mph - N/A   Overcast
2:56 PM 70.0 °F 60.1 °F 71% 30.04 in 10.0 mi North 10.4 mph - N/A   Overcast
3:56 PM 71.1 °F 57.9 °F 63% 30.03 in 10.0 mi West 4.6 mph - N/A   Overcast
4:08 PM 71.6 °F 59.0 °F 64% 30.02 in 10.0 mi West 4.6 mph - N/A   Overcast
4:56 PM 72.0 °F 57.9 °F 61% 30.02 in 10.0 mi WNW 6.9 mph - N/A   Overcast
5:56 PM 70.0 °F 59.0 °F 68% 30.02 in 10.0 mi WNW 5.8 mph - N/A   Overcast
6:56 PM 69.1 °F 57.9 °F 68% 30.02 in 10.0 mi NNW 8.1 mph - N/A   Mostly Cloudy
7:56 PM 66.0 °F 55.9 °F 70% 30.01 in 10.0 mi NNW 6.9 mph - N/A   Clear
8:56 PM 64.0 °F 55.0 °F 73% 30.03 in 10.0 mi North 6.9 mph - N/A   Clear
9:56 PM 63.0 °F 55.9 °F 78% 30.04 in 10.0 mi NNW 8.1 mph - N/A   Clear
10:56 PM 62.1 °F 57.0 °F 84% 30.05 in 10.0 mi NNW 5.8 mph - N/A   Scattered Clouds
11:56 PM 62.1 °F 57.0 °F 84% 30.05 in 10.0 mi Calm Calm - N/A   Clear